Temp
9 9 10 10 10 10 10 10 9 9 9 9 9 8 8 7 6 5 5 4 4 4
9 9 9 9 9 9 9 9 9 9 9 9 9 8 8 7 6 5 5 4 4 4
9 9 9 8 9 9 8 8 8 8 8 8 8 8 7 7 6 5 5 4 4 4
8 8 8 8 8 8 8 8 8 8 7 7 7 6 6 6 6 5 5 4 4 4
7 8 8 8 8 8 7 7 7 7 6 6 6 6 6 6 5 5 5 4 4 4
7 7 7 7 7 7 7 6 6 6 5 5 5 5 5 5 5 5 5 4 4 3
7 7 7 7 6 6 6 5 5 5 5 5 5 4 4 4 4 4 4 4 3 3
7 7 6 6 6 5 5 5 4 4 4 4 4 4 4 4 4 4 4 3 3 2
6 6 6 5 5 4 4 4 4 4 4 4 4 3 3 3 3 3 3 3 3 2
5 5 5 4 4 3 3 3 3 3 3 3 3 3 2 2 2 2 2 2 2 2
5 4 4 4 3 3 3 3 3 3 3 3 2 2 2 2 2 2 2 2 2 2
4 4 3 3 3 3 3 3 2 2 2 2 2 1 1 1 1 1 2 1 1 1
3 3 3 2 2 2 2 2 2 2 1 1 1 1 1 1 0 1 0 0 0 -0
3 2 2 2 2 2 2 1 1 1 1 0 0 0 0 -0 -0 -0 -1 -1 -1 -0
Height
1533 1533 1534 1535 1535 1534 1533 1532 1530 1528 1526 1524 1522 1520 1519 1518 1517 1517 1516 1515 1514 1513
1529 1530 1530 1531 1531 1530 1529 1528 1526 1524 1522 1520 1519 1517 1515 1513 1512 1511 1510 1509 1508 1507
1526 1526 1526 1527 1527 1527 1525 1524 1522 1520 1518 1517 1515 1513 1512 1510 1508 1507 1506 1505 1504 1502
1522 1523 1524 1524 1523 1523 1521 1520 1518 1516 1514 1513 1511 1510 1508 1507 1505 1504 1502 1501 1499 1498
1520 1521 1521 1520 1520 1519 1517 1516 1514 1513 1511 1510 1508 1506 1505 1503 1501 1499 1498 1496 1494 1494
1518 1518 1517 1517 1516 1515 1514 1513 1511 1509 1508 1506 1504 1503 1500 1499 1497 1494 1492 1490 1488 1488
1515 1514 1514 1513 1512 1511 1510 1509 1508 1506 1504 1502 1500 1498 1496 1493 1492 1490 1488 1485 1484 1482
1511 1510 1510 1509 1508 1507 1506 1505 1503 1502 1500 1498 1496 1494 1491 1489 1488 1485 1483 1481 1479 1476
1507 1507 1506 1505 1503 1502 1501 1499 1498 1497 1495 1493 1491 1489 1487 1484 1481 1480 1477 1475 1474 1471
1503 1503 1501 1500 1499 1498 1496 1494 1493 1492 1490 1488 1487 1484 1482 1479 1477 1475 1472 1470 1467 1466
1500 1500 1498 1497 1495 1493 1492 1489 1487 1486 1485 1483 1483 1480 1478 1476 1473 1472 1469 1465 1463 1460
1495 1494 1494 1492 1490 1489 1487 1484 1483 1482 1481 1480 1480 1477 1474 1472 1469 1467 1463 1461 1458 1455
1490 1488 1488 1486 1486 1484 1482 1481 1479 1477 1478 1475 1475 1473 1470 1466 1462 1458 1455 1454 1452 1450
1485 1484 1483 1483 1481 1479 1478 1476 1477 1475 1474 1472 1470 1466 1463 1460 1456 1452 1448 1444 1442 1442
Wind_Speed
16 14 12 12 12 13 14 16 17 17 18 18 17 17 17 16 16 16 17 16 17 17
15 14 13 14 14 15 16 17 18 18 17 17 16 17 17 17 16 17 17 16 17 18
14 14 15 15 15 16 17 17 17 17 16 16 16 16 16 17 16 17 17 17 18 19
13 13 14 15 15 16 16 16 16 15 16 16 16 16 16 16 17 17 18 18 19 20
12 13 13 14 15 15 15 15 15 16 17 17 17 17 17 17 18 19 19 20 21 21
11 12 13 14 14 14 15 16 17 17 18 18 19 19 19 19 19 19 20 20 21 21
11 11 12 12 14 15 16 17 18 18 19 19 20 20 20 20 20 20 20 21 21 22
11 11 12 13 15 16 17 18 19 19 20 20 20 20 21 21 21 21 21 21 21 21
12 12 13 15 16 17 17 18 18 19 19 19 19 19 19 20 20 20 21 21 21 21
13 13 14 16 16 16 17 17 17 18 19 19 18 19 20 20 21 20 20 21 22 23
13 14 15 15 15 16 17 17 17 17 18 19 17 17 18 19 20 20 20 21 23 25
14 15 15 15 15 16 16 16 17 17 17 18 15 16 19 22 24 27 27 26 27 28
15 15 15 14 15 15 16 17 18 17 17 19 22 21 24 26 29 32 32 31 30 28
15 14 14 14 14 15 17 18 19 21 22 24 26 27 28 28 30 32 35 34 33 30
Wind_Direction
245 246 248 253 266 280 291 294 297 301 303 303 302 301 297 291 285 285 286 284 284 284
244 244 247 258 270 280 290 297 300 302 303 302 301 300 297 293 287 281 279 281 281 282
239 241 249 262 277 286 292 297 299 300 300 301 301 299 298 296 292 286 284 281 280 281
237 250 262 272 280 288 294 295 296 298 299 300 299 299 299 298 296 293 289 286 285 284
248 258 268 278 284 288 290 293 295 296 298 300 300 300 298 296 294 293 293 291 289 288
260 270 274 278 283 288 291 293 295 296 297 298 298 298 298 297 296 295 294 293 293 292
268 273 278 284 288 289 291 293 295 297 297 298 298 299 300 299 298 297 297 296 295 293
268 274 281 285 288 290 292 293 294 298 299 300 301 301 300 300 299 299 299 297 295 294
274 279 282 285 287 289 290 294 298 300 300 301 302 301 299 298 298 298 299 299 296 296
271 281 286 288 290 291 293 296 299 301 301 302 303 302 302 303 302 303 303 304 305 303
278 285 288 288 291 293 296 299 301 301 300 301 304 305 306 306 305 304 305 306 304 303
276 282 285 289 290 292 295 297 299 300 301 300 301 303 305 305 304 301 302 301 298 300
276 279 281 288 291 296 299 301 300 298 296 298 301 302 304 305 303 301 301 298 297 297
275 280 289 291 296 298 299 299 298 296 295 296 299 301 301 301 300 301 299 297 298 296